La Crosse, WI

5:02 PM CDT on May 26, 2018 (GMT -0500)
La Crosse Municipal

Weather History for KLSE - December, 2012

Change the Weather History Date:

Monday, December 31, 2012

  Actual Average Record
Temperature  
Mean Temperature 11 °F 18 °F  
Max Temperature 24 °F 26 °F 59 °F (1965)
Min Temperature -2 °F 10 °F -20 °F (1976)
Degree Days  
Heating Degree Days 54 47  
Month to date heating degree days 1201 1344  
Since 1 July heating degree days 2690 2844  
Cooling Degree Days 0 0  
Month to date cooling degree days 0 0  
Year to date cooling degree days 1083 782  
Moisture  
Dew Point 7 °F    
Average Humidity 72    
Maximum Humidity 88    
Minimum Humidity 56    
Precipitation  
Precipitation T in 0.03 in 0.59 in (2006)
Month to date precipitation 1.98 1.36  
Year to date precipitation 26.68 33.06  
Snow  
Snow T in 0.30 in 6.20 in (1911)
Month to date snowfall 18.3 11.3  
Since 1 July snowfall 18.4 15.6  
Snow Depth 7.00 in    
Sea Level Pressure  
Sea Level Pressure 30.16 in    
Wind  
Wind Speed 9 mph (NW)    
Max Wind Speed 21 mph    
Max Gust Speed 24 mph    
Visibility 10 miles    
Events      
T = Trace of Precipitation, MM = Missing Value Source: NWS Daily Summary

Daily Weather History Graph

Daily Weather History Graph

Search for Another Location

Airport or City:

Astronomy

Dec. 31, 2012 Rise Set
Actual Time 7:39 AM CST 4:37 PM CST
Civil Twilight 7:06 AM CST 5:10 PM CST
Nautical Twilight 6:30 AM CST 5:46 PM CST
Astronomical Twilight 5:55 AM CST 6:21 PM CST
Moon 8:15 PM CST (12/31) 9:14 AM CST (12/31)
Length of Visible Light 10h 03m
Length of Day
8h 58m
Waning Gibbous, 90% of the Moon is Illuminated
Dec 31
Waning Gibbous
Jan 4
Last Quarter
Jan 11
New
Jan 18
First Quarter
Jan 26
Full

Hourly Weather History & Observations

Time (CST) Temp. Windchill Dew Point Humidity Pressure Visibility Wind Dir Wind Speed Gust Speed Precip Events Conditions
12:53 AM 21.9 °F 14.5 °F 17.1 °F 82% 30.00 in 10.0 mi WSW 5.8 mph - N/A   Clear
1:53 AM 21.9 °F 13.4 °F 16.0 °F 78% 30.01 in 10.0 mi West 6.9 mph - N/A   Clear
2:53 AM 21.0 °F 11.4 °F 15.1 °F 78% 30.04 in 10.0 mi West 8.1 mph - N/A   Clear
3:53 AM 16.0 °F 5.3 °F 12.0 °F 84% 30.06 in 10.0 mi NW 8.1 mph - N/A   Clear
4:53 AM 19.0 °F 5.0 °F 12.9 °F 77% 30.09 in 8.0 mi NW 15.0 mph - N/A   Mostly Cloudy
5:53 AM 19.0 °F 6.1 °F 14.0 °F 81% 30.12 in 8.0 mi WNW 12.7 mph - N/A   Overcast
6:53 AM 18.0 °F 2.2 °F 12.9 °F 81% 30.13 in 9.0 mi NNW 18.4 mph - N/A   Overcast
7:53 AM 17.1 °F 1.5 °F 10.9 °F 77% 30.14 in 7.0 mi NW 17.3 mph - N/A   Overcast
8:34 AM 17.6 °F 5.7 °F 10.4 °F 73% 30.09 in 7.0 mi NW 10.4 mph - N/A   Overcast
8:53 AM 17.1 °F 6.6 °F 10.9 °F 77% 30.16 in 6.0 mi NW 8.1 mph - N/A   Haze
9:53 AM 17.1 °F 4.3 °F 9.0 °F 71% 30.17 in 10.0 mi NW 11.5 mph - 0.00 in   Overcast
10:16 AM 15.8 °F 2.1 °F 6.8 °F 68% 30.13 in 10.0 mi NNW 12.7 mph - N/A   Scattered Clouds
10:38 AM 17.6 °F 3.7 °F 8.6 °F 68% 30.12 in 10.0 mi NNW 13.8 mph - N/A   Mostly Cloudy
10:53 AM 17.1 °F 3.6 °F 8.1 °F 68% 30.18 in 10.0 mi NNW 12.7 mph - N/A   Mostly Cloudy
11:13 AM 17.6 °F 5.0 °F 6.8 °F 63% 30.12 in 10.0 mi NNW 11.5 mph - N/A   Scattered Clouds
11:53 AM 16.0 °F 2.3 °F 6.1 °F 65% 30.18 in 10.0 mi NNW 12.7 mph - N/A   Clear
12:53 PM 17.1 °F 5.8 °F 6.1 °F 62% 30.17 in 10.0 mi NNW 9.2 mph - N/A   Clear
1:53 PM 18.0 °F 6.9 °F 6.1 °F 60% 30.17 in 10.0 mi NNW 9.2 mph - N/A   Clear
2:53 PM 17.1 °F 4.3 °F 5.0 °F 59% 30.18 in 10.0 mi NNW 11.5 mph - N/A   Clear
3:53 PM 15.1 °F 1.8 °F 5.0 °F 64% 30.19 in 10.0 mi NNW 11.5 mph - N/A   Clear
4:53 PM 10.9 °F -1.8 °F 1.9 °F 67% 30.21 in 10.0 mi NNW 9.2 mph - N/A   Clear
5:53 PM 10.0 °F -3.7 °F 1.9 °F 70% 30.21 in 10.0 mi NNW 10.4 mph - N/A   Clear
6:53 PM 8.1 °F 1.4 °F 1.0 °F 73% 30.24 in 10.0 mi North 3.5 mph - N/A   Clear
7:53 PM 3.9 °F -6.9 °F -2.0 °F 76% 30.26 in 10.0 mi NNW 5.8 mph - N/A   Clear
8:53 PM 6.1 °F -0.9 °F -0.9 °F 73% 30.27 in 10.0 mi North 3.5 mph - N/A   Clear
9:53 PM 1.9 °F -10.6 °F -4.0 °F 76% 30.28 in 10.0 mi NNW 6.9 mph - N/A   Clear
10:53 PM 1.9 °F -7.6 °F -2.9 °F 80% 30.32 in 10.0 mi NNW 4.6 mph - N/A   Clear
11:53 PM -0.9 °F -11.0 °F -6.0 °F 79% 30.32 in 10.0 mi North 4.6 mph - N/A   Clear